GORIZONT 26

Satellite information

Favourite Embed

Satellite Type and Status

PAYLOADIN ORBIT

Key statistics

Satellite GORIZONT 26 at a glance.

Uptime

12108

Days in orbit

Revolutions

≈ 1.0

Per day

Orbit

OTHER

Other

Inclination

14.0

Latest

Satellite identification and parameters

Extended collection of information and parameters for GORIZONT 26.

Object identification

Identified? True

Debris? False

Object name: GORIZONT 26

International designator: 1992-043A

Object number (NORAD): 22041

Object ID (CCSDS): 22041

Country: COMMONWEALTH OF INDEPENDENT STATES (CIS)

Current information (Y/N): Y

RCS size: LARGE

Orbital parameters

Period: 1451.01 minutes

Inclination: 13.9945 deg

SMA: 42456.143 km

Apoapsis: 36227.557 km

Periapsis: 35928.459 km

RAAN: 346.7951 deg

Eccentricy: 0.00352244

Argument of periapsis: 262.828 deg

Mean anomaly: 104.7955 deg

Mean motion: 0.99241188 rev/day

Mean motion (dot): -0.00000104 rev/day2

B* drag term: 0.0 1/REarth

Two-line elements (TLE)

Creation date: Sept. 6, 2025, 2:09 a.m.

Reference frame: TEME

Reference center: EARTH

Epoch: Sept. 5, 2025, 6:07 p.m. UTC

TLE line 0: 0 GORIZONT 26

TLE line 1: 1 22041U 92043A 25248.75505942 -.00000104 00000-0 00000-0 0 9991

TLE line 2: 2 22041 13.9945 346.7951 0035224 262.8280 104.7955 0.99241188120658

Live tracking on map

Real-time ground track for satellite GORIZONT 26.

In-orbit conjunctions

There are no conjunctions computed for GORIZONT 26, at the moment. Check back to stay up to date, as we update our databases every day.

Go to all conjunctions

Associated space launch

Geostationary communications satellite

GORIZONT 26 was lifted into orbit during the mission ‘Proton | Gorizont 26’, on board a Proton space rocket.

The launch took place on July 14, 1992, 10:02 p.m. from 81/23 (81L).

For more information about the launch, click the button.

Launch to space Proton | Gorizont 26
Proton | Gorizont 26

Agency: N/A

Status: Launch Successful

Launch date: July 14, 1992, 10:02 p.m. UTC

Rocket: Proton

Launch pad: 81/23 (81L)

Location: Baikonur Cosmodrome, Republic of Kazakhstan

...

Latest news about this satellite

There are no fresh news available about this satellite. Check back as we update our databases every day.


Newsletter sign-up

Weekly statistics, charts and insights to help you stay on top of the space industry.